Presure
315 310 140 237 251 251 213 191 196 178 182 185 180 181 171 166 179 164 166 173 183 175 159 171 174 172 173 186 180 176 197 211 207 205 197 202 207 198 200 187 192 211 201 211
165 264 121 224 238 226 182 163 186 160 177 177 179 181 186 187 185 175 185 170 151 175 178 170 180 211 200 183 182 209 200 214 201 205 203 192 213 194 209 203 201 185 204 197
268 155 209 229 180 204 201 198 194 175 188 187 187 181 186 176 155 172 179 179 172 174 199 195 211 214 200 203 206 210 203 201 195 187 190 193 216 203 209 234 229 228 225 197
224 226 231 168 193 197 213 214 213 198 194 191 193 195 205 211 189 177 176 196 207 212 205 197 201 201 210 205 210 197 197 192 197 206 232 196 196 212 242 245 243 243 242 223
213 211 211 213 216 216 217 216 217 212 207 200 196 191 201 168 212 209 201 198 198 203 207 202 199 197 186 187 198 197 187 199 182 253 239 221 295 310 283 284 239 298 288 228
198 205 199 213 199 204 212 212 210 206 199 199 197 195 197 196 196 195 193 216 193 194 192 179 184 183 261 254 195 191 177 201 200 185 291 278 299 299 266 292 285 296 300 274
174 178 186 195 213 193 206 190 191 198 209 194 182 188 191 190 195 196 192 191 197 171 166 182 133 181 204 244 245 195 241 286 304 242 293 282 260 287 282 285 282 280 280 282
192 195 196 196 170 179 183 187 193 202 189 177 174 176 168 166 202 197 176 178 183 192 186 212 185 254 203 170 220 246 282 283 310 323 309 290 280 276 270 273 280 275 269 269
191 191 194 197 197 199 201 198 201 197 203 211 199 197 163 202 172 213 213 103 205 213 242 225 176 179 239 255 239 263 281 283 323 322 308 289 274 267 269 265 283 278 277 275
191 198 190 187 185 198 200 204 196 190 197 193 203 201 209 181 199 213 196 233 211 168 240 239 227 226 254 254 257 338 328 326 320 318 314 297 276 300 293 281 269 265 280 282
187 186 179 190 186 196 177 185 203 191 199 208 202 210 211 211 212 225 230 229 236 229 231 236 234 253 272 282 284 335 325 319 327 308 316 313 312 305 302 289 280 273 271 276
177 190 197 196 188 113 199 201 199 202 208 212 218 219 214 219 223 223 233 226 231 241 170 273 287 294 274 262 343 330 334 320 317 321 316 312 314 307 302 306 293 288 282 276
185 193 200 201 196 202 203 205 196 192 203 210 217 219 229 226 227 222 245 214 245 247 257 251 279 271 258 325 160 328 327 320 316 313 315 314 312 312 312 305 301 297 297 302
183 199 203 200 194 198 188 201 198 210 194 209 201 220 217 215 233 211 215 230 241 248 259 291 268 333 323 324 326 321 319 314 314 311 306 308 310 309 312 315 317 314 309 324
192 198 197 195 196 196 202 201 203 204 215 221 210 218 219 252 216 203 252 242 189 207 269 156 251 212 325 324 318 317 315 305 305 305 304 305 306 311 320 325 330 333 383 424
191 190 194 137 199 200 197 202 208 210 206 218 221 234 225 223 161 247 239 249 241 262 277 176 328 309 315 318 313 311 305 307 308 308 310 315 319 324 327 328 421 424 420 417
198 156 192 199 194 202 207 203 201 202 203 216 216 234 249 223 224 252 236 248 254 281 325 182 323 312 312 310 309 304 303 303 308 314 318 321 321 422 431 429 425 424 431 429
195 118 200 200 203 210 211 201 207 211 226 237 222 231 228 241 246 250 246 249 291 150 313 318 313 309 310 309 304 299 303 310 316 317 330 464 461 456 448 443 439 444 459 476
200 202 205 202 202 198 206 204 212 215 238 226 233 224 238 242 253 245 256 281 328 328 315 317 307 305 307 303 299 303 312 314 317 549 549 533 508 481 465 456 461 471 478 480
208 148 110 205 203 204 202 211 221 234 224 212 238 231 247 250 239 255 277 321 320 322 317 308 306 305 303 296 302 308 309 478 570 560 548 536 516 497 484 474 473 496 516 514
207 212 216 219 213 214 213 227 237 230 228 254 230 242 249 242 248 308 324 313 315 314 309 304 306 301 298 299 305 311 448 465 478 518 516 502 483 470 466 461 457 459 455 446
218 210 222 221 219 226 242 247 237 243 242 233 254 251 251 249 325 325 325 320 315 308 305 306 300 298 297 302 322 430 432 426 416 414 416 415 413 410 408 409 408 403 390 379
235 232 223 227 234 232 240 234 249 244 248 256 258 260 304 330 328 320 318 308 310 305 306 301 298 301 302 323 408 424 417 400 388 377 370 371 373 374 373 370 367 365 370 375
238 238 246 247 246 238 240 250 249 252 262 265 302 319 329 325 317 315 312 313 309 309 304 297 302 301 349 407 433 404 408 387 370 363 357 353 352 352 354 363 369 370 371 323
239 252 245 241 248 249 250 258 261 271 298 293 332 331 321 309 315 312 310 309 309 304 295 304 302 359 410 442 420 391 403 375 363 351 351 357 361 359 362 364 363 321 316 328
248 247 247 250 251 257 263 289 320 294 327 332 320 319 318 314 311 313 310 309 304 299 301 306 370 460 448 429 398 383 392 368 352 346 359 359 349 350 337 319 317 331 332 338
289 324 310 332 332 318 307 293 340 330 331 324 315 315 308 312 310 311 307 302 304 302 315 394 472 404 438 412 384 371 382 362 351 346 360 340 332 329 330 311 306 315 325 338
Wind_Speed
23 21 17 42 51 56 61 45 55 46 54 59 58 64 60 60 68 58 63 69 78 76 62 78 85 84 87 96 87 85 97 90 92 90 94 96 98 96 95 84 86 100 98 103
5 23 20 30 39 48 40 40 52 45 54 56 58 62 66 69 70 68 76 70 57 83 87 81 92 84 99 94 95 95 101 93 97 97 98 98 102 95 105 100 97 76 107 94
25 12 17 25 16 32 46 49 53 44 58 59 62 63 68 64 54 69 79 82 77 79 83 93 88 87 96 98 100 99 99 99 98 96 97 99 107 111 117 107 113 112 108 95
24 18 13 16 17 26 35 40 46 55 58 60 61 61 64 60 71 75 77 82 81 78 83 91 91 94 93 99 100 103 104 103 106 97 107 97 99 122 111 111 109 108 112 103
18 17 15 14 14 14 16 20 23 30 39 51 59 65 61 62 61 64 72 77 81 80 82 90 96 100 97 98 105 108 102 112 83 106 92 117 101 95 97 94 110 95 96 110
11 19 21 7 20 19 18 18 25 34 44 47 53 57 60 64 68 72 78 72 88 90 91 91 95 98 100 95 111 109 80 117 117 77 98 97 92 91 92 92 94 90 87 97
19 19 21 23 20 34 25 41 44 42 42 55 63 66 69 72 74 73 77 79 85 85 84 100 65 95 94 95 95 89 104 102 93 105 89 91 89 88 88 90 90 92 92 92
22 23 25 28 35 40 40 42 45 47 51 58 62 66 68 70 72 75 87 90 95 96 77 90 76 104 87 77 92 102 105 95 87 82 82 85 85 86 88 88 90 91 93 95
30 27 29 32 35 36 40 44 47 51 55 61 57 60 66 69 79 79 85 37 88 96 105 103 100 102 99 101 92 106 92 89 81 79 79 82 85 87 87 89 87 89 90 91
41 41 38 39 41 48 50 54 54 49 56 60 69 70 79 65 76 87 78 100 89 90 104 105 100 96 103 98 99 82 82 81 78 77 78 81 85 83 84 86 88 89 88 88
46 44 43 49 52 54 47 50 62 56 65 74 71 81 83 87 90 99 101 99 101 99 102 104 102 106 103 105 98 82 81 81 80 79 80 79 81 84 85 88 89 90 91 89
50 55 60 60 56 28 62 64 64 72 79 84 89 92 90 96 101 101 103 102 106 108 80 116 115 111 103 99 82 83 79 80 79 79 80 80 81 80 84 85 88 92 93 92
59 62 66 66 66 73 74 78 73 71 85 90 94 95 100 101 101 100 103 96 108 109 115 104 116 108 101 89 76 82 79 79 79 80 80 81 81 82 81 84 88 91 94 94
59 70 74 72 68 74 66 84 81 94 76 96 87 103 100 99 105 92 98 107 110 112 121 125 111 87 87 85 83 82 81 81 81 81 81 82 84 85 87 87 85 86 94 96
70 75 76 73 76 77 88 90 95 95 103 106 99 107 105 104 103 92 112 111 75 91 130 74 101 73 84 82 83 82 82 82 83 84 86 87 88 89 89 90 89 88 79 67
76 74 80 40 88 91 86 95 101 103 100 109 111 111 111 106 63 116 112 124 113 134 96 80 87 83 82 82 84 84 84 86 87 88 89 90 92 92 92 91 76 70 67 64
88 69 87 93 88 99 104 99 95 99 103 113 109 113 111 108 106 119 108 126 129 125 90 61 85 84 85 86 86 85 86 88 91 92 94 94 93 84 78 74 70 67 62 59
89 39 97 98 102 107 108 100 111 115 121 115 100 112 111 115 119 123 121 126 127 63 88 87 86 86 87 87 87 89 91 93 95 95 95 78 74 70 66 64 63 60 55 44
99 103 105 103 104 99 111 111 117 118 116 118 112 111 117 119 127 119 136 131 88 84 87 83 86 88 88 88 88 91 94 94 94 60 55 53 53 54 55 55 53 48 43 38
109 70 43 111 109 110 105 116 122 118 117 104 118 113 125 123 111 137 135 88 88 82 81 83 85 86 86 87 91 94 93 67 48 44 39 35 33 32 33 35 36 34 29 23
113 117 119 119 118 119 119 122 119 118 116 126 114 122 128 112 129 107 85 87 85 82 82 85 85 84 85 87 89 92 69 55 49 40 34 30 27 25 23 22 20 16 11 7
120 111 119 119 120 123 121 118 120 123 120 113 135 128 133 128 91 87 84 80 80 81 82 83 81 83 85 87 89 65 54 48 45 42 38 33 29 26 23 19 16 12 8 3
122 121 119 122 124 121 122 119 127 123 128 135 137 137 117 84 82 80 79 83 81 82 81 80 80 82 82 85 69 52 44 39 35 33 31 29 25 22 19 15 12 8 7 5
125 126 125 122 123 120 122 129 129 132 138 140 119 93 82 79 80 80 79 78 78 77 77 78 81 81 83 67 45 45 36 31 30 29 27 25 23 21 18 16 14 10 8 7
126 130 122 123 128 127 130 132 137 138 122 108 82 80 78 79 76 78 79 79 77 75 76 79 79 79 65 42 38 37 30 26 25 25 24 23 21 19 20 18 14 8 7 6
133 132 132 133 131 134 139 126 98 97 81 77 79 76 77 77 76 75 75 74 74 74 76 77 76 47 39 33 32 29 26 22 23 22 21 19 16 16 11 7 7 6 6 7
135 100 114 85 82 91 96 99 70 74 72 71 74 75 76 75 75 73 72 73 74 74 76 72 40 50 30 27 26 25 23 19 18 17 19 11 10 9 7 4 4 5 5 7
Wind_Direction
106 131 222 187 189 194 206 222 223 233 236 239 244 247 251 255 260 268 269 271 272 275 283 281 283 283 284 285 288 292 291 289 290 292 293 293 292 293 294 297 299 294 302 297
184 150 256 192 196 202 218 216 228 224 240 245 250 254 256 259 263 269 269 274 281 277 278 282 281 284 283 290 292 287 291 289 292 291 290 294 289 298 294 301 301 297 302 291
91 239 172 178 232 214 217 225 232 246 242 247 251 257 259 265 275 271 269 270 275 278 277 280 282 283 286 287 288 288 289 291 292 294 296 297 292 296 295 287 287 289 287 303
101 114 130 243 216 214 214 223 231 237 245 251 256 261 263 267 266 269 275 277 279 280 280 282 285 285 287 288 288 290 291 293 293 293 296 299 298 295 290 282 282 281 290 287
114 134 159 178 182 199 213 226 237 243 247 251 255 261 268 276 275 276 275 277 280 283 285 284 285 286 289 290 290 291 296 292 305 299 294 297 297 292 293 288 287 289 289 285
186 170 191 178 207 218 251 249 245 253 250 252 257 262 264 268 270 273 274 288 279 281 283 289 289 289 305 305 290 293 311 298 293 303 299 299 293 292 293 291 291 291 290 289
267 262 247 238 302 242 263 251 245 255 271 256 266 265 269 274 275 280 286 287 292 287 289 287 287 290 304 305 307 303 308 305 300 296 296 297 292 293 292 291 291 291 291 290
292 281 265 277 273 267 268 270 274 271 276 275 278 280 281 283 289 290 283 284 284 284 300 295 305 309 309 308 309 308 307 301 298 293 292 292 292 290 290 290 289 288 289 289
293 283 286 286 284 287 288 283 286 279 289 297 281 288 289 290 283 302 304 301 298 303 309 309 298 298 309 311 306 311 305 302 297 294 290 288 290 290 289 290 287 287 287 286
298 296 293 288 286 296 296 297 298 293 299 296 303 302 305 273 301 309 287 309 311 297 309 305 307 309 310 310 312 303 300 297 295 293 292 290 290 289 286 285 287 289 287 288
297 293 289 298 296 297 296 291 299 297 301 305 301 307 308 309 310 310 309 310 308 310 309 308 307 310 312 313 310 303 301 299 298 294 293 291 290 289 289 288 288 288 289 290
292 298 300 300 298 295 302 304 304 307 309 310 309 309 309 310 309 310 308 309 310 308 307 320 318 315 313 314 304 303 302 299 298 297 295 294 293 290 290 289 286 287 288 290
296 298 298 301 303 304 305 306 307 305 309 310 310 311 309 309 309 311 308 309 310 312 318 315 319 316 315 309 300 305 303 301 299 298 297 296 295 294 292 291 291 289 289 291
291 299 302 304 304 306 304 308 308 308 305 309 309 311 311 311 308 308 309 310 312 316 320 319 317 308 310 307 306 305 303 302 302 301 300 298 297 296 295 295 294 294 295 298
301 303 305 307 306 307 306 307 308 309 309 309 310 311 310 308 311 309 316 314 311 316 321 301 315 306 308 307 305 304 304 304 303 302 301 300 299 299 299 299 300 300 300 300
301 303 304 300 306 305 307 307 307 309 310 309 309 308 309 309 297 314 314 319 316 321 310 298 306 309 307 306 306 306 307 306 304 302 302 302 303 303 303 302 303 301 301 301
299 295 302 302 304 304 303 305 306 307 308 307 308 306 309 308 310 317 315 318 319 318 307 309 308 308 307 307 308 308 307 306 306 306 306 306 305 304 303 302 301 301 301 301
299 292 300 301 302 302 303 305 305 305 305 304 305 306 308 312 315 318 317 318 315 303 307 309 308 308 308 309 310 308 308 309 310 310 308 305 303 302 301 300 299 299 301 299
296 297 298 299 300 303 302 303 302 303 303 303 305 306 309 313 315 317 319 314 306 306 308 308 308 308 309 310 309 309 310 312 312 312 309 305 302 299 298 298 299 301 301 298
294 300 308 296 298 299 300 300 301 300 300 304 305 307 312 314 314 317 314 304 305 306 307 307 307 309 310 310 311 312 314 322 327 324 323 322 319 315 311 309 309 310 312 311
293 293 293 294 295 296 297 298 298 298 299 309 304 308 312 313 315 308 302 306 305 307 307 308 310 311 311 310 312 315 322 334 346 351 350 349 349 347 346 349 350 355 357 4
290 291 291 292 294 295 298 300 299 304 303 302 309 309 311 311 302 303 304 304 305 306 307 309 311 310 311 314 316 322 326 335 344 352 358 3 7 11 15 19 26 39 53 28
289 289 290 292 292 295 297 298 305 303 305 306 304 305 305 300 302 303 303 304 305 307 309 310 309 310 313 316 321 321 326 332 340 346 351 356 2 9 15 21 24 24 18 19
289 291 292 294 295 295 298 301 302 302 303 303 301 301 300 302 302 301 302 303 304 308 308 307 310 314 316 320 319 319 324 329 333 338 344 348 350 354 358 2 3 7 14 68
289 292 292 293 295 297 297 299 300 301 297 300 295 297 301 299 299 300 302 305 308 308 307 310 314 316 317 315 315 319 325 323 328 332 338 343 348 354 356 358 3 51 59 70
290 290 291 292 293 294 294 295 294 296 294 295 298 298 299 299 301 302 304 305 305 306 310 313 314 313 312 308 313 318 323 320 321 329 340 345 351 356 359 24 40 49 67 77
285 285 285 286 287 289 291 292 290 291 292 294 296 296 297 300 302 305 304 304 307 309 312 314 313 313 307 305 312 314 320 311 314 322 342 335 335 337 345 22 50 60 77 95